Regional Weather Roundup
Issued by NWS

Home | Current Version | Previous Version | Graphics & Text | Print | Product List | Glossary On
Versions: 1 2 3 4 5 6 7 8 9 10 11 12 13 14 15 16 17 18 19 20 21 22 23 24 25 26 27 28 29 30 31 32 33 34 35 36 37 38 39 40 41 42 43 44 45 46 47 48 49 50
000
ASUS45 KSLC 301910
RWRUT

UTAH REGIONAL WEATHER ROUNDUP
NATIONAL WEATHER SERVICE SALT LAKE CITY UT
100 PM MDT SAT JUL 30 2016

UTZ001>011-023>025-302000-

NORTHERN UTAH

CITY           SKY/WX    TMP DP  RH WIND       PRES   REMARKS
BRIGHAM CITY     N/A     87  38  17 CALM      30.00R
HILL AFB       PTSUNNY   92  46  20 W13       30.02S
LOGAN          CLOUDY    80  51  36 N13       30.03R
OGDEN          PTSUNNY   93  44  18 W13       29.99R
PROVO AIRPORT  MOSUNNY   91  45  19 VRB7      30.00F
SALT LAKE CITY PTSUNNY   97  42  15 S13       29.95S HX  93
VERNAL         SUNNY     90  32  12 CALM      30.05F
WENDOVER       CLOUDY    88  45  22 E7        29.99S
HEBER CITY     SUNNY     91  37  15 SW17      30.06F
WEST JORDAN    SUNNY     93  46  20 SE16      29.99

$$

UTZ012>022-026-027-302000-

SOUTHERN/CENTRAL UTAH

CITY           SKY/WX    TMP DP  RH WIND       PRES   REMARKS
BLANDING       SUNNY     87  43  21 NE3       30.21F
BRYCE CANYON   MOSUNNY   81  41  24 VRB5      30.28F THUNDER
CEDAR CITY     SUNNY     90  51  26 SW15G23   30.12F
DELTA          SUNNY     91  37  15 S13G23    30.02F
MILFORD        SUNNY     93  49  22 S20G31    30.04F HX  90
MOAB/CYNLANDS  CLOUDY    93  40  15 SE7       29.99F
PRICE          PTSUNNY   83  37  19 E6        30.14F
ST GEORGE      CLEAR     93  55  27 W8        29.96F HX  91

$$

REGIONAL REPORTS     COLORADO/ARIZONA

CITY           SKY/WX    TMP DP  RH WIND       PRES   REMARKS
CRAIG, CO      SUNNY     91  30  11 N6        30.13F
GRAND JUNCTION CLOUDY    90  40  17 W8        30.05F
RIFLE          SUNNY     88  36  15 NW7       30.08F
MONTROSE       CLOUDY    87  41  19 N12       30.15F
CORTEZ         SUNNY     88  43  20 CALM      30.13F
PAGE, AZ       MOSUNNY   95  47  19 W10       30.01F HX  91
GRAND CANYON   PTSUNNY   88  46  23 SW15      30.23F
KINGMAN        CLOUDY    86  59  39 SW5       30.02F
FLAGSTAFF      MOSUNNY   82  46  28 SW10      30.24F

$$

REGIONAL REPORTS    NEVADA/IDAHO/WYOMING

CITY           SKY/WX    TMP DP  RH WIND       PRES   REMARKS
LAS VEGAS, NV  MOSUNNY  101  54  20 S12       29.82F HAZE    HX  99
ELY            LGT RAIN  80  43  26 W12       30.18R
ELKO           MOSUNNY   92  40  16 SW10      30.02F
POCATELLO, ID  CLOUDY    93  43  17 W13       29.98S
BURLEY         MOSUNNY   84  53  34 SW3       29.92S
EVANSTON, WY   CLOUDY    83  35  18 W16       30.18F
ROCK SPRINGS   SUNNY     87  31  13 SW12      30.14F
KEMMERER         N/A    N/A N/A N/A W8        30.20S

$$



USA.gov is the U.S. government's official web portal to all federal, state and local government web resources and services.